Location: Dodgeville
(42.9600°N, 90.1300°W)
Time: 02:08:02
(UTC-05:00)

Uosat F - Visible Passes

Search period start: 26 July 2014 00:00
Search period end: 05 August 2014 00:00
Orbit: 752 x 762 km, 98.7° (Epoch: 25 July)

Date Brightness Start Highest point End Pass type
(mag) Time Alt. Az. Time Alt. Az. Time Alt. Az.
26 Jul 13.3 04:23:40 10° NE 04:27:32 22° E 04:31:21 10° SE visible
28 Jul 12.7 04:43:45 10° NNE 04:48:18 33° E 04:52:48 10° SSE visible
29 Jul 13.7 04:06:08 10° ENE 04:08:50 14° E 04:11:31 10° ESE visible
30 Jul 11.9 05:04:05 10° NNE 05:09:00 52° E 05:13:52 10° S visible
31 Jul 13.3 04:25:44 10° NE 04:29:39 23° E 04:33:32 10° SE visible
02 Aug 12.6 04:45:50 10° NNE 04:50:25 34° E 04:54:57 10° SSE visible
03 Aug 13.7 04:08:08 10° NE 04:10:58 15° E 04:13:46 10° SE visible
04 Aug 11.9 05:06:11 10° NNE 05:11:06 54° E 05:15:59 10° S visible
